Date,TemperatureHighF,TemperatureAvgF,TemperatureLowF,DewpointHighF,DewpointAvgF,DewpointLowF,HumidityHigh,HumidityAvg,HumidityLow,PressureMaxIn,PressureMinIn,WindSpeedMaxMPH,WindSpeedAvgMPH,GustSpeedMaxMPH,PrecipitationSumIn
2012-1-1,49,41,33,43,37,30,96,87,68,30.05,29.50,20,4,0,0.05
2012-1-2,34,28,18,29,23,15,93,80,67,29.90,29.62,14,4,0,0.01
2012-1-3,18,9,1,15,5,-4,88,81,68,30.30,29.91,9,2,0,0.01
2012-1-4,29,18,0,22,10,-4,84,72,50,30.29,29.87,10,2,0,0.00
2012-1-5,33,31,28,29,26,22,86,80,74,29.93,29.76,7,2,0,0.00
2012-1-6,52,43,30,37,33,25,84,68,56,29.75,29.59,18,4,0,0.00
2012-1-7,48,43,35,38,35,28,85,74,65,30.05,29.62,16,4,0,0.00
2012-1-8,34,29,23,27,23,20,95,78,64,30.35,30.05,6,1,0,0.00
2012-1-9,43,34,25,25,22,19,85,62,41,30.29,29.85,11,2,0,0.00
2012-1-10,41,38,34,32,30,25,86,74,58,30.01,29.80,13,3,0,0.00
2012-1-11,46,38,28,36,31,26,94,77,61,29.97,29.64,6,2,0,0.05
2012-1-12,43,39,36,42,38,35,98,96,94,29.63,29.29,4,1,0,0.03
2012-1-13,41,26,18,40,24,16,96,94,92,29.77,29.26,20,6,0,0.02
2012-1-14,22,15,7,20,13,4,93,89,85,30.26,29.78,9,1,0,0.03
2012-1-15,17,10,4,11,6,2,88,85,79,30.59,30.26,4,1,0,0.00
2012-1-16,40,25,4,37,18,0,93,75,54,30.55,29.90,11,3,0,0.06
2012-1-17,53,41,30,48,38,23,97,92,75,29.89,29.28,23,4,0,0.18
2012-1-18,30,21,14,22,15,10,90,76,64,30.20,29.68,14,3,0,0.18
2012-1-19,28,20,12,24,15,8,93,81,62,30.14,29.76,14,4,0,0.02
2012-1-20,20,16,12,13,10,7,85,77,70,30.31,30.02,8,2,0,0.02
2012-1-21,27,21,16,20,17,13,91,86,72,30.37,30.07,4,1,0,0.05
2012-1-22,33,25,15,29,19,12,88,79,66,30.40,30.11,7,2,0,0.00
2012-1-23,48,40,33,42,37,29,91,86,80,30.10,29.63,19,6,0,0.01
2012-1-24,37,33,31,34,30,25,92,87,79,30.23,29.76,14,5,0,0.01
2012-1-25,30,29,28,26,24,23,90,82,76,30.38,30.23,9,1,0,0.02
2012-1-26,37,31,28,36,30,26,97,94,88,30.23,29.57,4,1,0,0.06
2012-1-27,45,38,33,44,36,27,97,94,80,29.93,29.29,18,4,0,0.29
2012-1-28,37,32,27,33,28,18,93,85,66,29.98,29.72,13,4,0,0.00
2012-1-29,34,30,25,29,25,18,94,82,66,30.06,29.90,17,3,0,0.22
2012-1-30,31,26,22,24,21,17,94,83,62,30.28,30.02,8,2,0,0.22
2012-1-31,54,46,26,40,35,23,91,66,56,30.02,29.83,12,3,0,0.00
2012-2-1,54,44,35,46,39,30,95,82,62,30.09,29.77,11,4,0,0.11
2012-2-2,35,31,29,30,28,24,91,86,81,30.39,30.07,7,1,0,0.00
2012-2-3,36,32,28,31,28,24,90,85,80,30.50,30.36,10,2,0,0.00
2012-2-4,39,32,27,31,28,25,92,84,65,30.37,30.18,6,1,0,0.00
2012-2-5,34,30,28,29,26,23,90,84,77,30.22,30.14,4,0,0,0.00
2012-2-6,46,38,31,33,30,24,89,73,46,30.15,29.93,17,6,0,0.00
2012-2-7,37,31,21,33,28,18,94,87,83,30.33,30.01,9,1,0,0.00
2012-2-8,30,24,18,23,19,16,98,80,60,30.33,30.15,12,1,0,0.00
2012-2-9,38,30,26,27,24,19,86,77,59,30.16,30.10,13,4,0,0.00
2012-2-10,33,30,28,25,22,21,85,73,61,30.09,29.89,11,2,0,0.00
2012-2-11,29,20,11,27,17,7,93,89,84,30.02,29.78,12,2,0,0.03
2012-2-12,24,20,13,20,16,11,91,84,70,30.00,29.89,16,4,0,0.03
2012-2-13,35,29,24,25,21,17,82,73,61,30.01,29.95,18,5,0,0.00
2012-2-14,34,32,29,32,25,17,95,78,57,30.01,29.93,7,1,0,0.00
2012-2-15,38,33,28,32,30,24,96,87,70,30.26,30.01,11,2,0,0.00
2012-2-16,42,36,28,40,34,25,94,90,84,30.22,29.89,9,2,0,0.01
2012-2-17,41,34,29,35,30,23,93,83,72,30.08,29.95,16,4,0,0.01
2012-2-18,39,32,28,33,28,23,94,87,76,30.16,29.83,11,2,0,0.02
2012-2-19,30,28,23,27,23,18,89,82,75,30.17,30.11,5,1,0,0.02
2012-2-20,37,27,20,21,19,16,90,74,52,30.38,30.16,5,1,0,0.00
2012-2-21,40,33,23,37,25,19,90,74,54,30.31,29.66,17,3,0,0.00
2012-2-22,45,37,33,37,34,30,95,89,70,29.68,29.43,15,3,0,0.26
2012-2-23,40,34,29,35,31,28,96,90,76,29.73,29.42,9,1,0,0.26
2012-2-24,43,35,32,42,33,28,97,91,79,29.68,29.25,21,5,0,0.16
2012-2-25,32,29,24,28,23,14,92,81,54,30.20,29.40,21,5,0,0.01
2012-2-26,34,27,21,23,20,16,83,74,60,30.45,30.21,6,1,0,0.01
2012-2-27,50,38,26,31,26,21,79,63,44,30.28,29.99,27,5,0,0.00
2012-2-28,34,30,28,28,24,22,83,76,69,30.49,30.29,11,2,0,0.00
2012-2-29,38,32,28,37,30,24,97,91,80,30.33,29.55,10,3,0,0.05
2012-3-1,42,38,36,40,35,32,96,89,78,29.91,29.52,11,3,0,0.09
2012-3-2,49,41,35,41,35,33,92,80,62,29.94,29.34,14,2,0,0.06
2012-3-3,49,39,31,45,31,24,89,74,58,29.64,29.24,20,9,0,0.01
2012-3-4,32,26,18,27,22,15,90,84,73,29.86,29.62,15,3,0,0.02
2012-3-5,28,19,10,15,12,7,87,73,48,30.45,29.87,8,2,0,0.00
2012-3-6,41,29,16,25,19,12,87,67,49,30.56,30.25,13,2,0,0.00
2012-3-7,66,55,40,43,33,24,58,44,36,30.26,30.02,12,4,0,0.00
2012-3-8,60,50,32,52,42,27,95,76,47,30.01,29.70,14,5,0,0.19
2012-3-9,35,29,22,31,23,16,92,80,63,30.38,30.01,13,2,0,0.07
2012-3-10,37,28,18,22,18,14,88,66,44,30.61,30.29,7,2,0,0.07
2012-3-11,63,50,36,34,29,22,59,45,33,30.32,30.24,14,4,0,0.00
2012-3-12,68,54,42,51,38,29,86,57,34,30.26,29.91,11,2,0,0.00
2012-3-13,62,57,47,54,50,41,94,78,60,30.00,29.82,20,5,0,0.18
2012-3-14,65,50,35,40,34,28,91,60,27,30.17,30.01,9,1,0,0.00
2012-3-15,71,56,43,54,46,34,81,68,53,30.14,30.01,10,1,0,0.00
2012-3-16,69,62,57,58,55,48,94,79,67,30.19,29.97,13,2,0,0.00
2012-3-17,76,60,50,59,54,49,98,83,55,30.25,30.16,6,1,0,0.00
2012-3-18,77,64,54,61,55,49,92,73,50,30.17,30.06,6,1,0,0.08
2012-3-19,76,64,56,61,57,54,93,79,59,30.14,30.07,6,0,0,0.08
2012-3-20,76,65,54,61,57,52,96,76,55,30.23,30.12,4,1,0,0.00
2012-3-21,79,67,55,61,56,52,91,69,44,30.25,30.12,6,1,0,0.00
2012-3-22,83,68,56,60,56,52,87,68,45,30.18,30.06,5,1,0,0.00
2012-3-23,66,59,52,54,48,38,90,69,50,30.15,30.03,10,3,0,0.00
2012-3-24,61,54,49,53,45,34,93,73,54,30.03,29.84,6,2,0,0.02
2012-3-25,56,50,43,51,47,40,97,91,78,29.86,29.77,7,2,0,0.08
2012-3-26,46,35,29,40,22,13,83,61,39,30.33,29.86,13,4,0,0.00
2012-3-27,47,34,22,22,14,9,64,46,29,30.41,29.93,4,1,0,0.00
2012-3-28,68,55,41,52,40,19,92,58,32,29.93,29.53,16,4,0,0.07
2012-3-29,40,37,35,38,32,27,94,84,72,30.13,29.74,10,2,0,0.11
2012-3-30,46,36,29,30,26,23,95,70,49,30.14,29.88,9,2,0,0.22
2012-3-31,38,34,31,36,32,30,97,94,87,29.97,29.86,7,2,0,0.25
2012-4-1,38,34,30,37,33,29,100,95,93,29.94,29.70,4,0,0,0.16
2012-4-2,53,42,33,38,30,23,97,69,33,30.01,29.79,10,2,0,0.16
2012-4-3,58,43,32,34,27,22,78,55,27,30.05,29.82,4,1,0,0.00
2012-4-4,55,45,38,38,32,27,78,61,45,29.84,29.72,14,2,0,0.00
2012-4-5,44,37,32,29,27,25,89,68,51,30.05,29.84,9,1,0,0.00
2012-4-6,52,40,29,28,26,23,87,62,33,30.17,30.05,9,1,0,0.00
2012-4-7,58,44,31,31,26,23,81,52,27,30.25,30.12,5,2,0,0.00
2012-4-8,64,46,36,42,31,25,74,57,28,30.10,29.80,18,3,0,0.00
2012-4-9,54,44,36,33,29,26,67,57,34,29.81,29.67,24,5,0,0.00
2012-4-10,47,41,35,37,31,25,92,70,57,29.84,29.64,8,3,0,0.11
2012-4-11,48,40,34,39,35,31,95,85,62,30.09,29.83,12,2,0,0.02
2012-4-12,54,44,35,37,33,31,89,69,45,30.20,30.09,6,1,0,0.02
2012-4-13,62,48,34,36,31,25,80,55,29,30.28,30.17,7,1,0,0.00
2012-4-14,67,54,40,51,37,27,83,56,32,30.18,29.94,7,1,0,0.00
2012-4-15,71,60,55,62,56,51,94,87,74,29.94,29.81,6,1,0,0.03
2012-4-16,85,69,56,63,56,44,89,64,43,29.97,29.69,16,3,0,0.01
2012-4-17,57,49,37,43,38,31,79,65,49,30.35,29.97,12,3,0,0.01
2012-4-18,58,42,30,37,31,28,92,69,42,30.36,30.07,6,1,0,0.00
2012-4-19,72,57,39,53,43,33,79,62,42,30.07,29.91,12,2,0,0.00
2012-4-20,81,67,53,52,48,45,83,55,29,29.91,29.62,5,1,0,0.00
2012-4-21,60,44,37,50,41,36,96,91,65,29.96,29.67,5,1,0,0.17
2012-4-22,39,38,36,37,36,35,96,93,87,29.97,29.79,14,3,0,0.17
2012-4-23,38,34,32,36,33,31,97,96,92,29.78,29.27,9,2,0,0.39
2012-4-24,43,37,33,37,34,32,97,91,76,29.61,29.24,11,3,0,0.07
2012-4-25,57,45,36,36,33,30,90,63,39,29.89,29.62,9,2,0,0.07
2012-4-26,59,45,36,47,37,30,92,74,49,29.86,29.57,5,1,0,0.05
2012-4-27,47,38,32,38,28,24,91,71,52,30.23,29.81,8,2,0,0.05
2012-4-28,53,40,27,32,25,17,87,58,40,30.31,30.19,6,1,0,0.00
2012-4-29,59,44,30,29,24,19,67,48,26,30.30,30.21,7,1,0,0.00
2012-4-30,57,46,31,47,32,24,94,63,32,30.30,29.94,5,0,0,0.23
2012-5-1,58,52,48,54,50,47,97,90,80,30.06,29.85,7,0,0,0.26
2012-5-2,76,61,48,65,56,46,98,85,64,30.05,29.85,3,0,0,0.14
2012-5-3,84,71,60,69,64,58,97,79,54,30.04,29.83,5,1,0,0.18
2012-5-4,77,66,58,66,61,56,98,84,62,29.95,29.86,8,1,0,0.38
2012-5-5,61,54,45,57,43,34,87,67,42,30.11,29.96,10,1,0,0.00
2012-5-6,69,54,37,43,36,29,95,57,28,30.13,30.06,4,1,0,0.00
2012-5-7,63,57,50,58,49,35,96,76,50,30.08,29.79,5,0,0,0.13
2012-5-8,67,60,54,62,58,52,98,93,77,29.78,29.70,5,0,0,0.07
2012-5-9,71,59,50,55,50,46,96,76,45,29.75,29.63,6,1,0,0.01
2012-5-10,62,52,43,47,39,33,91,64,39,29.88,29.64,5,1,0,0.02
2012-5-11,72,57,43,44,39,34,77,54,32,30.11,29.88,7,1,0,0.00
2012-5-12,80,65,49,49,44,40,73,50,30,30.19,30.12,16,1,0,0.00
2012-5-13,74,63,54,57,51,48,85,68,46,30.18,30.08,5,1,0,0.00
2012-5-14,77,63,52,58,54,50,94,73,47,30.08,29.97,2,0,0,0.00
2012-5-15,84,66,52,60,53,46,97,68,35,29.98,29.86,2,0,0,0.00
2012-5-16,77,60,45,58,47,38,87,64,45,30.06,29.78,4,0,0,0.01
2012-5-17,69,52,38,42,38,35,91,62,32,30.20,30.06,5,0,0,0.01
2012-5-18,80,60,42,48,42,36,81,55,28,30.21,30.11,4,0,0,0.00
2012-5-19,90,69,51,60,51,44,86,57,27,30.15,30.10,7,0,0,0.00
2012-5-20,91,74,55,61,56,51,87,58,32,30.19,30.06,3,0,0,0.00
2012-5-21,83,71,63,65,59,48,96,67,52,30.05,29.89,4,0,0,0.08
2012-5-22,77,67,62,68,64,59,97,90,73,29.89,29.80,3,0,0,0.46
2012-5-23,75,66,59,65,61,57,94,84,69,29.96,29.87,1,0,0,0.46
2012-5-24,83,71,57,67,62,56,97,75,55,30.02,29.92,2,0,0,0.00
2012-5-25,88,77,66,74,66,61,85,71,49,30.01,29.91,4,0,0,0.11
2012-5-26,84,72,60,62,58,54,90,62,38,30.16,30.03,4,0,0,0.11
2012-5-27,82,67,54,62,57,52,92,71,48,30.14,29.93,3,0,0,0.00
2012-5-28,93,77,59,75,67,57,95,75,50,29.95,29.74,4,0,0,0.07
2012-5-29,87,76,65,73,68,63,93,78,61,29.74,29.61,10,2,0,0.11
2012-5-30,80,69,59,63,56,49,96,66,38,29.81,29.68,4,0,0,0.11
2012-5-31,66,58,50,51,48,44,89,70,52,29.98,29.81,6,0,0,0.00
2012-6-1,60,55,51,60,53,46,98,93,80,29.98,29.55,4,0,0,0.72
2012-6-2,69,58,52,56,50,48,97,76,48,29.72,29.60,7,1,0,0.74
2012-6-3,65,57,53,58,53,48,96,88,68,29.69,29.63,5,0,0,0.19
2012-6-4,53,52,48,53,51,47,98,97,96,29.88,29.65,7,1,0,0.05
2012-6-5,69,58,50,54,50,48,97,78,52,29.98,29.88,9,1,0,0.05
2012-6-6,79,61,47,64,53,46,95,76,46,29.98,29.90,4,0,0,0.24
2012-6-7,81,65,52,60,55,51,97,74,45,29.98,29.90,4,0,0,0.24
2012-6-8,82,69,58,61,55,50,81,63,44,29.94,29.83,9,1,0,0.00
2012-6-9,74,67,59,65,60,49,96,80,55,29.93,29.83,5,1,0,0.12
2012-6-10,94,77,62,66,63,60,97,66,34,30.05,29.92,2,0,0,0.10
2012-6-11,93,77,63,69,64,59,90,66,41,30.04,29.92,4,0,0,0.07
2012-6-12,78,68,57,72,66,54,98,93,82,29.94,29.76,5,0,0,0.24
2012-6-13,72,60,49,56,52,46,90,75,52,30.17,29.95,6,1,0,0.24
2012-6-14,79,62,48,61,53,47,97,74,46,30.27,30.18,3,0,0,0.00
2012-6-15,84,69,54,64,57,51,93,68,44,30.27,30.18,3,0,0,0.00
2012-6-16,85,72,60,65,61,57,90,68,48,30.24,30.07,4,0,0,0.00
2012-6-17,86,74,62,69,62,58,87,68,52,30.07,29.83,5,0,0,0.00
2012-6-18,80,72,64,70,65,59,95,78,68,29.93,29.84,3,0,0,0.13
2012-6-19,90,77,65,73,68,63,97,76,54,30.00,29.93,6,1,0,0.13
2012-6-20,96,82,74,73,65,-100,74,63,44,30.05,29.93,6,1,0,0.00
2012-6-21,93,82,70,71,67,63,83,63,46,29.93,29.75,10,1,0,0.00
2012-6-22,83,72,62,67,63,57,93,75,53,29.89,29.77,4,0,0,0.06
2012-6-23,82,69,56,63,57,53,89,68,44,30.01,29.89,10,1,0,0.00
2012-6-24,83,69,58,63,58,54,90,70,45,30.01,29.79,4,0,0,0.00
2012-6-25,67,63,58,60,53,48,94,72,53,29.87,29.77,10,2,0,0.00
2012-6-26,76,64,53,55,51,49,93,65,44,29.89,29.80,11,2,0,0.00
2012-6-27,78,68,58,60,55,51,88,65,43,29.88,29.79,6,1,0,0.00
2012-6-28,92,77,60,68,61,55,82,60,39,29.83,29.63,4,1,0,0.00
2012-6-29,91,80,71,67,63,59,82,58,37,29.70,29.61,6,1,0,0.00
2012-6-30,90,77,66,66,63,59,88,65,37,29.76,29.66,9,1,0,0.00
2012-7-1,88,77,66,63,60,56,87,59,37,29.89,29.75,8,0,0,0.00
2012-7-2,89,74,59,62,58,55,89,61,35,29.98,29.89,4,0,0,0.00
2012-7-3,90,73,60,71,64,57,90,73,43,29.94,29.76,7,0,0,0.01
2012-7-4,95,81,69,75,71,64,87,73,51,29.81,29.72,7,1,0,0.01
2012-7-5,90,77,67,72,66,63,89,69,50,29.88,29.77,4,0,0,0.00
2012-7-6,97,81,67,77,70,62,94,73,45,29.90,29.83,4,0,0,0.00
2012-7-7,86,75,68,74,69,65,95,83,62,29.89,29.81,3,0,0,0.04
2012-7-8,87,73,64,68,64,60,95,75,50,29.93,29.87,7,1,0,0.04
2012-7-9,83,71,59,61,57,54,95,65,40,30.01,29.92,5,0,0,0.00
2012-7-10,84,70,56,64,56,50,95,65,37,30.09,29.97,5,0,0,0.02
2012-7-11,89,71,53,62,54,50,90,60,31,30.15,30.09,5,0,0,0.00
2012-7-12,93,74,59,65,59,52,83,61,36,30.14,30.06,4,0,0,0.00
2012-7-13,95,77,62,69,65,59,94,70,41,30.15,30.07,3,0,0,0.00
2012-7-14,90,78,67,69,65,61,87,67,44,30.14,30.01,4,0,0,0.00
2012-7-15,88,76,70,73,68,63,94,79,50,30.04,29.89,6,0,0,0.01
2012-7-16,92,80,70,72,67,62,96,69,40,29.91,29.80,8,1,0,0.01
2012-7-17,96,85,75,73,67,56,87,57,44,29.81,29.66,16,2,0,0.03
2012-7-18,83,76,65,72,67,61,95,76,50,29.93,29.73,5,0,0,0.03
2012-7-19,78,67,59,65,60,58,96,80,53,29.98,29.91,5,0,0,0.02
2012-7-20,69,65,60,63,60,56,94,85,69,30.05,29.96,2,0,0,0.05
2012-7-21,83,71,58,65,61,57,98,75,48,30.08,29.98,3,0,0,0.05
2012-7-22,90,76,63,70,64,60,90,69,50,30.06,29.98,5,0,0,0.00
2012-7-23,95,83,72,72,68,63,88,64,40,29.99,29.67,14,2,0,0.05
2012-7-24,85,75,62,72,64,54,94,71,46,29.88,29.68,9,1,0,0.05
2012-7-25,87,72,58,64,59,55,96,67,39,29.95,29.71,3,0,0,0.14
2012-7-26,79,72,64,72,68,62,98,89,76,29.71,29.56,5,1,0,0.53
2012-7-27,80,72,66,69,66,61,98,83,63,29.89,29.63,3,0,0,0.69
2012-7-28,79,69,63,70,65,60,98,86,63,29.99,29.88,3,0,0,0.03
2012-7-29,88,72,58,66,60,56,96,70,42,30.04,29.98,6,0,0,0.03
2012-7-30,90,74,59,66,60,54,93,65,36,30.02,29.94,3,0,0,0.00
2012-7-31,89,72,65,72,66,61,98,83,53,29.95,29.77,4,0,0,2.61
2012-8-1,84,73,64,71,66,63,99,80,54,29.85,29.79,7,0,0,2.62
2012-8-2,88,75,62,69,66,62,97,76,50,29.87,29.81,3,0,0,0.00
2012-8-3,89,78,68,74,68,62,91,73,50,30.01,29.86,1,0,0,0.00
2012-8-4,94,81,70,76,72,68,94,74,51,30.04,29.93,4,0,0,0.00
2012-8-5,86,76,69,75,71,65,97,84,68,29.98,29.82,7,1,0,1.71
2012-8-6,81,68,58,65,59,56,90,73,45,30.10,29.98,4,0,0,1.71
2012-8-7,89,71,55,65,58,51,91,67,40,30.00,29.89,3,0,0,0.00
2012-8-8,92,75,61,70,64,57,88,71,45,29.93,29.87,4,0,0,0.00
2012-8-9,81,72,65,69,66,62,95,81,55,29.88,29.76,2,0,0,0.00
2012-8-10,77,69,65,69,66,63,96,89,73,29.78,29.64,4,0,0,0.09
2012-8-11,77,68,62,66,61,59,97,81,59,29.85,29.68,6,1,0,0.09
2012-8-12,78,68,62,66,63,59,94,83,63,29.93,29.83,5,1,0,0.04
2012-8-13,84,71,62,66,63,61,96,79,49,29.99,29.91,4,0,0,0.04
2012-8-14,81,68,64,68,64,61,96,88,63,29.93,29.80,2,0,0,0.09
2012-8-15,83,70,60,66,63,59,98,82,53,29.92,29.85,4,0,0,0.01
2012-8-16,86,71,60,65,62,59,98,74,41,29.95,29.77,6,0,0,0.01
2012-8-17,79,70,60,66,61,54,95,76,54,29.88,29.69,5,1,0,0.18
2012-8-18,76,62,51,54,52,48,93,70,44,29.97,29.88,3,0,0,0.00
2012-8-19,81,64,50,57,52,48,92,69,40,29.97,29.85,3,0,0,0.00
2012-8-20,76,64,54,60,55,51,93,74,54,29.96,29.86,7,0,0,0.00
2012-8-21,82,65,50,55,51,48,94,65,34,30.08,29.96,3,0,0,0.00
2012-8-22,84,67,54,62,55,49,88,68,47,30.13,30.07,6,0,0,0.00
2012-8-23,87,70,54,61,56,49,85,65,38,30.14,30.08,3,0,0,0.00
2012-8-24,90,73,59,65,59,53,82,64,37,30.16,30.09,2,0,0,0.00
2012-8-25,89,74,62,68,62,58,88,69,44,30.20,30.12,3,0,0,0.00
2012-8-26,84,73,60,69,64,58,94,74,59,30.22,30.07,5,0,0,0.00
2012-8-27,82,71,67,70,66,63,96,84,65,30.07,29.88,3,0,0,0.06
2012-8-28,79,70,63,67,64,59,97,83,54,29.95,29.86,9,1,0,0.07
2012-8-29,77,64,54,55,52,48,94,68,41,30.07,30.00,11,1,0,0.00
2012-8-30,87,68,53,65,57,49,95,71,42,30.08,29.97,5,1,0,0.00
2012-8-31,92,79,68,71,62,53,83,57,42,29.98,29.84,10,2,0,0.00
2012-9-1,84,72,61,66,59,55,89,67,45,30.08,29.97,5,0,0,0.00
2012-9-2,86,70,57,60,57,53,87,66,37,30.05,29.99,6,0,0,0.00
2012-9-3,85,71,57,72,65,54,96,82,65,30.02,29.91,6,0,0,0.00
2012-9-4,84,72,66,73,69,66,98,91,68,29.93,29.73,6,0,0,2.36
2012-9-5,82,70,65,69,65,63,99,85,58,29.87,29.80,2,0,0,2.38
2012-9-6,84,72,66,73,68,63,96,87,61,29.87,29.77,3,0,0,0.17
2012-9-7,84,71,60,70,65,60,99,82,53,29.89,29.66,6,0,0,0.17
2012-9-8,70,64,54,67,61,53,96,91,80,29.76,29.40,6,1,0,0.52
2012-9-9,68,58,52,59,52,47,98,83,52,29.99,29.77,6,1,0,0.53
2012-9-10,70,57,47,52,46,43,96,71,43,30.15,29.99,5,0,0,0.00
2012-9-11,70,53,46,57,49,44,94,85,63,30.25,30.16,0,0,0,0.00
2012-9-12,84,66,52,59,54,49,88,68,37,30.28,30.20,5,0,0,0.00
2012-9-13,87,70,58,64,58,53,84,68,44,30.27,30.17,5,0,0,0.00
2012-9-14,81,65,53,67,59,52,96,83,55,30.17,30.02,6,0,0,0.15
2012-9-15,66,57,50,55,52,48,96,84,63,30.23,30.12,5,0,0,0.15
2012-9-16,73,60,48,59,53,47,97,80,54,30.14,30.02,5,0,0,0.00
2012-9-17,77,64,53,60,53,50,90,69,41,30.03,29.82,4,0,0,0.00
2012-9-18,73,62,49,66,59,46,98,91,76,29.81,29.43,15,1,0,0.28
2012-9-19,63,52,44,48,44,40,95,76,49,30.17,29.82,4,0,0,0.28
2012-9-20,73,57,41,52,46,39,93,70,45,30.15,29.92,7,1,0,0.00
2012-9-21,72,62,56,60,55,52,91,78,64,29.92,29.82,5,0,0,0.00
2012-9-22,61,56,48,56,52,44,97,88,72,29.92,29.57,4,0,0,0.03
2012-9-23,59,49,42,45,42,39,94,77,52,30.14,29.92,7,1,0,0.03
2012-9-24,59,49,39,45,42,38,95,77,54,30.16,29.97,6,1,0,0.00
2012-9-25,73,61,49,51,45,40,80,56,38,30.00,29.92,9,2,0,0.00
2012-9-26,68,61,55,61,56,43,90,83,64,30.11,29.90,4,0,0,0.00
2012-9-27,63,52,43,51,45,41,93,77,59,30.24,30.11,8,0,0,0.00
2012-9-28,56,50,44,53,46,41,96,88,72,30.17,30.04,4,0,0,0.03
2012-9-29,61,52,45,52,47,43,96,85,67,30.05,29.94,4,0,0,0.03
2012-9-30,57,52,46,52,49,45,97,89,78,29.94,29.84,6,0,0,0.06
2012-10-1,66,59,51,53,51,49,90,74,60,29.92,29.88,7,1,0,0.00
2012-10-2,61,57,51,60,55,48,98,94,89,29.95,29.86,0,0,0,0.05
2012-10-3,72,64,60,68,62,59,99,94,78,30.11,29.92,1,0,0,0.05
2012-10-4,76,64,58,60,56,52,95,77,51,30.12,30.02,5,1,0,0.00
2012-10-5,70,62,53,60,56,51,93,82,72,30.01,29.86,11,1,0,0.02
2012-10-6,55,49,44,51,43,35,97,80,57,30.02,29.79,7,1,0,0.93
2012-10-7,50,45,36,43,40,35,94,82,67,30.11,30.01,2,0,0,0.20
2012-10-8,54,44,36,44,40,35,97,87,68,30.23,30.12,1,0,0,0.20
2012-10-9,60,48,35,45,40,33,94,77,52,30.23,29.97,3,0,0,0.00
2012-10-10,56,47,42,46,40,34,93,77,61,29.98,29.76,13,2,0,0.00
2012-10-11,55,45,36,37,34,32,85,65,50,30.18,29.99,6,2,0,0.00
2012-10-12,52,39,29,44,31,25,95,75,52,30.45,30.02,8,1,0,0.21
2012-10-13,51,41,29,43,30,22,92,68,40,30.45,29.97,5,1,0,0.05
2012-10-14,75,64,52,63,57,44,97,78,58,29.97,29.58,12,2,0,0.01
2012-10-15,67,55,45,58,49,39,90,80,68,29.77,29.46,14,2,0,0.02
2012-10-16,54,45,39,40,38,36,92,78,59,29.92,29.78,10,0,0,0.02
2012-10-17,69,52,37,48,42,35,93,72,47,29.92,29.78,4,0,0,0.00
2012-10-18,67,56,48,50,46,42,93,72,55,29.87,29.68,7,1,0,0.20
2012-10-19,67,53,43,55,49,42,98,89,55,29.87,29.59,3,0,0,0.32
2012-10-20,55,48,46,52,38,-100,96,79,59,29.77,29.60,10,-40,0,0.03
2012-10-21,61,51,45,48,45,43,93,82,59,30.07,29.77,14,3,0,0.03
2012-10-22,67,54,46,50,46,43,95,76,48,30.13,30.05,5,1,0,0.00
2012-10-23,52,45,49,51,33,-100,98,84,77,30.09,30.00,2,-105,0,0.27
2012-10-24,57,53,50,56,53,49,99,99,98,30.11,30.07,2,0,0,0.29
2012-10-25,81,67,56,61,58,55,99,77,48,30.09,29.97,6,1,0,0.00
2012-10-26,77,61,47,60,54,45,93,79,55,30.14,29.97,7,2,0,0.02
2012-10-27,50,47,43,49,46,42,98,97,94,30.14,29.94,6,1,0,0.23
2012-10-28,43,42,41,42,41,40,100,98,97,30.07,29.89,7,2,0,0.22
2012-10-29,50,44,43,49,44,42,99,98,98,29.89,29.10,21,6,0,0.85
2012-10-30,54,50,42,54,47,38,98,89,75,29.39,29.05,18,5,0,0.03
2012-10-31,44,42,40,41,38,36,94,86,74,29.45,29.38,5,0,0,0.03
2012-11-1,45,42,40,42,40,38,95,91,83,29.61,29.44,11,3,0,0.01
2012-11-2,40,38,36,38,35,32,91,86,74,29.88,29.61,7,2,0,0.01
2012-11-3,38,36,34,36,32,29,96,88,78,30.09,29.88,9,2,0,0.01
2012-11-4,35,34,32,32,29,27,91,85,79,30.12,30.08,5,0,0,0.00
2012-11-5,35,33,32,30,28,23,92,80,70,30.22,30.09,5,1,0,0.01
2012-11-6,40,33,28,26,24,22,81,71,58,30.21,30.07,5,1,0,0.01
2012-11-7,39,30,22,29,24,20,92,79,50,30.12,30.07,8,1,0,0.00
2012-11-8,44,33,25,28,25,22,91,74,54,30.16,30.09,5,1,0,0.00
2012-11-9,48,40,31,41,35,26,88,82,68,30.21,30.11,10,1,0,0.00
2012-11-10,50,46,40,45,42,38,94,86,76,30.29,30.17,4,1,0,0.00
2012-11-11,74,60,50,49,43,40,82,54,30,30.26,30.15,7,1,0,0.00
2012-11-12,68,57,40,53,46,37,92,68,53,30.15,29.87,13,4,0,0.20
2012-11-13,39,36,34,37,28,24,91,73,64,30.54,30.14,6,1,0,0.21
2012-11-14,38,35,29,32,28,25,85,75,66,30.62,30.49,3,0,0,0.00
2012-11-15,44,34,26,31,27,24,92,78,55,30.50,30.33,5,0,0,0.00
2012-11-16,47,35,27,36,30,25,93,84,64,30.52,30.35,3,0,0,0.00
2012-11-17,50,37,28,39,32,26,95,83,61,30.66,30.52,4,0,0,0.00
2012-11-18,48,37,28,36,31,26,94,81,59,30.64,30.50,5,1,0,0.00
2012-11-19,50,39,32,38,33,29,92,79,62,30.50,30.24,3,0,0,0.00
2012-11-20,48,40,34,38,35,31,91,82,65,30.24,30.12,3,0,0,0.00
2012-11-21,53,40,29,38,33,28,96,79,49,30.26,30.17,4,0,0,0.00
2012-11-22,62,45,36,43,25,-100,77,57,49,30.21,29.96,6,-72,0,0.00
2012-11-23,52,40,32,46,23,-100,89,65,57,29.95,29.64,19,-90,0,0.01
2012-11-24,35,29,30,27,11,-100,82,63,61,29.93,29.71,13,-100,0,0.01
2012-11-25,31,27,29,28,11,-100,90,72,66,29.93,29.82,11,-113,0,0.01
2012-11-26,36,30,31,29,14,-100,83,65,66,30.24,29.88,12,-92,0,0.00
2012-11-27,36,28,29,26,9,-100,77,63,65,30.30,30.23,3,-114,0,0.00
2012-11-28,36,32,29,29,24,20,84,71,62,30.26,30.16,10,2,0,0.00
2012-11-29,44,35,27,33,27,20,81,72,61,30.29,30.19,13,2,0,0.00
2012-11-30,37,27,23,33,24,20,94,88,80,30.42,30.29,7,3,0,0.02
2012-12-1,47,35,25,39,32,23,96,88,73,30.39,30.19,6,1,0,0.00
2012-12-2,53,49,45,51,45,38,96,85,72,30.19,29.90,9,3,0,0.10
2012-12-3,54,46,42,52,44,40,95,90,82,30.23,30.07,4,0,0,0.00
2012-12-4,69,57,46,56,52,42,95,84,59,30.07,29.86,10,3,0,0.27
2012-12-5,46,35,27,42,28,19,89,76,63,30.38,29.94,12,3,0,0.00
2012-12-6,39,31,21,26,22,18,88,70,47,30.41,30.05,5,1,0,0.00
2012-12-7,45,40,36,41,34,23,94,80,55,30.05,29.93,4,1,0,0.00
2012-12-8,47,41,34,46,40,31,98,96,90,30.15,29.75,5,1,0,0.03
2012-12-9,44,34,29,42,31,24,97,88,81,30.28,29.77,10,2,0,0.09
2012-12-10,53,43,34,50,41,32,94,92,89,29.75,29.52,9,3,0,0.06
2012-12-11,33,30,27,32,27,25,93,90,85,30.18,29.74,3,0,0,0.00
2012-12-12,39,34,29,30,28,26,92,80,70,30.43,30.18,6,1,0,0.00
2012-12-13,45,34,28,27,25,23,89,69,47,30.45,30.21,6,1,0,0.00
2012-12-14,44,38,32,34,28,20,93,69,50,30.27,30.16,10,2,0,0.00
2012-12-15,39,34,29,34,32,27,96,89,79,30.30,29.97,6,1,0,0.00
2012-12-16,53,45,39,43,39,33,92,79,68,29.96,29.70,16,3,0,0.00
2012-12-17,46,45,43,44,43,42,96,92,87,29.74,29.52,10,1,0,0.11
2012-12-18,44,41,36,43,39,32,97,93,79,29.72,29.45,6,2,0,0.30
2012-12-19,41,36,30,34,31,29,94,84,75,30.20,29.73,6,1,0,0.00
2012-12-20,39,33,29,36,23,-100,90,77,68,30.19,29.43,14,-38,0,0.01
2012-12-21,39,34,29,37,32,27,96,93,84,29.45,29.20,10,3,0,0.16
2012-12-22,31,28,26,27,25,23,95,87,75,29.92,29.36,15,4,0,0.00
2012-12-23,35,31,27,28,25,21,92,81,73,30.01,29.80,12,3,0,0.00
2012-12-24,30,28,27,26,22,20,92,78,70,30.07,29.89,6,2,0,0.01
2012-12-25,32,28,27,27,26,24,95,89,79,30.34,29.91,6,1,0,0.00
2012-12-26,27,23,19,25,20,16,98,89,79,30.35,29.79,10,4,0,0.31
2012-12-27,26,24,22,25,23,21,100,95,95,30.06,29.73,12,3,0,0.07
2012-12-28,27,23,18,26,22,17,96,95,94,30.16,30.05,9,1,0,0.00
2012-12-29,28,24,18,27,23,16,97,95,93,30.05,29.69,5,1,0,0.02
2012-12-30,26,23,21,25,22,19,96,95,94,30.26,29.84,9,1,0,0.00
2012-12-31,31,28,24,31,28,23,97,97,96,30.20,29.86,15,5,0,0.00
2013-1-1,31,21,8,30,19,6,97,94,90,30.06,29.86,9,1,0,0.00